Location: Pordenone
(45.9640°N, 12.6580°E)
Time: 17:36:35
(UTC+02:00)

ISS - Pass Details

Date: 22 May 2021
Orbit: 417 x 422 km, 51.6° (Epoch: 18 June)

Event Time Altitude Azimuth Distance (km) Brightness Sun altitude
Rises 22:57:06 0° 292° (WNW) 2,368 1.0 -17.3°
Reaches altitude 10° 22:59:20 10° 303° (WNW) 1,504 0.0 -17.5°
Maximum altitude 23:02:25 33° 9° (N) 739 -2.1 -17.8°
Enters shadow 23:05:06 13° 72° (ENE) 1,353 -1.3 -18.0°
